• In Sweden
  • List of Countries
  • For 7 days
  • Water Temperature
  • Satellite Maps
  • Weather Map
  • Weather Widgets
  • user-avatar
    Login

    Hourly Weather Mogilnyy Mys

    Today, 26 September, Wednesday

    Time Temperature Precipitation Wind Pressure Humidity
    00:00 +13°C° 0.1 mm 1 mps 757 mmHg 97%
    01:00 +13°C° 0 mm 1 mps 758 mmHg 97%
    02:00 +13°C° 0 mm 1 mps 758 mmHg 97%
    03:00 +13°C° 0 mm 1 mps 758 mmHg 97%
    04:00 +12°C° 0 mm 1 mps 758 mmHg 97%
    05:00 +12°C° 0 mm 1 mps 758 mmHg 97%
    06:00 +12°C° 0 mm 2 mps 758 mmHg 97%
    07:00 +13°C° 0 mm 2 mps 759 mmHg 96%
    08:00 +14°C° 0 mm 2 mps 759 mmHg 94%
    09:00 +15°C° 0 mm 2 mps 759 mmHg 93%
    10:00 +15°C° 0 mm 2 mps 759 mmHg 92%
    11:00 +16°C° 0 mm 2 mps 759 mmHg 91%
    12:00 +17°C° 0 mm 2 mps 759 mmHg 90%
    13:00 +17°C° 0 mm 2 mps 759 mmHg 88%
    14:00 +18°C° 0 mm 2 mps 759 mmHg 87%
    15:00 +18°C° 0 mm 2 mps 759 mmHg 85%
    16:00 +17°C° 0 mm 2 mps 759 mmHg 88%
    17:00 +17°C° 0 mm 2 mps 759 mmHg 91%
    18:00 +16°C° 0 mm 1 mps 759 mmHg 94%
    19:00 +15°C° 0 mm 1 mps 760 mmHg 94%
    20:00 +15°C° 0 mm 2 mps 760 mmHg 95%
    21:00 +14°C° 0 mm 2 mps 760 mmHg 96%
    22:00 +14°C° 0 mm 2 mps 760 mmHg 96%
    23:00 +14°C° 0 mm 2 mps 760 mmHg 96%

    Tomorrow, 27 September, Thursday

    Time Temperature Precipitation Wind Pressure Humidity
    00:00 +14°C° 0 mm 2 mps 760 mmHg 96%
    01:00 +13°C° 0 mm 2 mps 760 mmHg 96%
    02:00 +13°C° 0 mm 2 mps 760 mmHg 96%
    03:00 +13°C° 0 mm 2 mps 760 mmHg 96%
    04:00 +12°C° 0 mm 2 mps 760 mmHg 96%
    05:00 +12°C° 0 mm 2 mps 760 mmHg 96%
    06:00 +10°C° 0 mm 2 mps 761 mmHg 96%
    07:00 +12°C° 0 mm 2 mps 761 mmHg 92%
    08:00 +13°C° 0 mm 2 mps 761 mmHg 88%
    09:00 +14°C° 0 mm 2 mps 761 mmHg 84%
    10:00 +16°C° 0 mm 2 mps 761 mmHg 78%
    11:00 +17°C° 0 mm 2 mps 761 mmHg 72%
    12:00 +19°C° 0 mm 2 mps 761 mmHg 66%
    13:00 +19°C° 0 mm 2 mps 761 mmHg 62%
    14:00 +20°C° 0 mm 2 mps 761 mmHg 59%
    15:00 +21°C° 0 mm 2 mps 761 mmHg 55%
    16:00 +19°C° 0 mm 2 mps 761 mmHg 62%
    17:00 +17°C° 0 mm 2 mps 761 mmHg 70%
    18:00 +16°C° 0 mm 1 mps 761 mmHg 77%
    19:00 +14°C° 0 mm 1 mps 761 mmHg 80%
    20:00 +13°C° 0 mm 1 mps 761 mmHg 84%
    21:00 +12°C° 0 mm 1 mps 762 mmHg 87%
    22:00 +12°C° 0 mm 1 mps 762 mmHg 88%
    23:00 +11°C° 0 mm 1 mps 761 mmHg 89%

    Day after tomorrow, 28 September, Friday

    Time Temperature Precipitation Wind Pressure Humidity
    00:00 +11°C° 0 mm 1 mps 761 mmHg 91%
    01:00 +11°C° 0 mm 1 mps 761 mmHg 91%
    02:00 +10°C° 0 mm 1 mps 761 mmHg 92%
    03:00 +10°C° 0 mm 1 mps 761 mmHg 93%
    04:00 +10°C° 0 mm 1 mps 761 mmHg 93%
    05:00 +9°C° 0 mm 1 mps 761 mmHg 94%
    06:00 +9°C° 0 mm 1 mps 761 mmHg 94%
    07:00 +10°C° 0 mm 2 mps 761 mmHg 90%
    08:00 +12°C° 0 mm 2 mps 760 mmHg 85%
    09:00 +13°C° 0 mm 2 mps 760 mmHg 81%
    10:00 +15°C° 0 mm 2 mps 760 mmHg 74%
    11:00 +17°C° 0 mm 3 mps 759 mmHg 68%
    12:00 +18°C° 0 mm 3 mps 759 mmHg 61%
    13:00 +19°C° 0 mm 3 mps 758 mmHg 60%
    14:00 +19°C° 0 mm 3 mps 758 mmHg 58%
    15:00 +20°C° 0 mm 4 mps 757 mmHg 56%
    16:00 +18°C° 0 mm 3 mps 757 mmHg 64%
    17:00 +17°C° 0 mm 3 mps 757 mmHg 73%
    18:00 +14°C° 0 mm 3 mps 756 mmHg 81%
    19:00 +14°C° 0 mm 3 mps 756 mmHg 85%
    20:00 +13°C° 0 mm 3 mps 756 mmHg 88%
    21:00 +13°C° 0 mm 3 mps 756 mmHg 92%
    22:00 +12°C° 0 mm 3 mps 755 mmHg 93%
    23:00 +12°C° 0 mm 3 mps 755 mmHg 94%

    29 September, Saturday

    Time Temperature Precipitation Wind Pressure Humidity
    00:00 +12°C° 0 mm 3 mps 754 mmHg 95%
    01:00 +12°C° 0 mm 3 mps 753 mmHg 95%
    02:00 +11°C° 0 mm 3 mps 753 mmHg 96%
    03:00 +11°C° 0 mm 3 mps 752 mmHg 96%
    04:00 +11°C° 0 mm 3 mps 752 mmHg 96%
    05:00 +11°C° 0 mm 3 mps 752 mmHg 96%
    06:00 +11°C° 0 mm 3 mps 752 mmHg 96%
    07:00 +11°C° 0.4 mm 3 mps 752 mmHg 94%
    08:00 +11°C° 0.4 mm 4 mps 753 mmHg 92%
    09:00 +11°C° 0.4 mm 4 mps 753 mmHg 90%
    10:00 +12°C° 0.3 mm 4 mps 753 mmHg 85%
    11:00 +12°C° 0.3 mm 4 mps 754 mmHg 81%
    12:00 +12°C° 0.3 mm 4 mps 755 mmHg 76%
    13:00 +13°C° 0 mm 4 mps 755 mmHg 71%
    14:00 +13°C° 0 mm 4 mps 756 mmHg 65%
    15:00 +14°C° 0 mm 4 mps 756 mmHg 60%
    16:00 +12°C° 0 mm 4 mps 757 mmHg 63%
    17:00 +11°C° 0 mm 3 mps 757 mmHg 66%
    18:00 +10°C° 0 mm 3 mps 757 mmHg 70%
    19:00 +9°C° 0 mm 3 mps 757 mmHg 70%
    20:00 +8°C° 0 mm 4 mps 757 mmHg 71%
    21:00 +8°C° 0 mm 4 mps 757 mmHg 72%
    22:00 +8°C° 0 mm 4 mps 757 mmHg 70%
    23:00 +8°C° 0 mm 5 mps 756 mmHg 69%

    30 September, Sunday

    Time Temperature Precipitation Wind Pressure Humidity
    00:00 +8°C° 0 mm 5 mps 756 mmHg 67%
    01:00 +9°C° 0 mm 5 mps 756 mmHg 66%
    02:00 +9°C° 0 mm 5 mps 756 mmHg 65%
    03:00 +9°C° 0 mm 5 mps 756 mmHg 65%
    04:00 +8°C° 0 mm 5 mps 756 mmHg 66%
    05:00 +8°C° 0 mm 5 mps 756 mmHg 68%
    06:00 +8°C° 0 mm 5 mps 756 mmHg 69%
    07:00 +8°C° 0 mm 6 mps 756 mmHg 67%
    08:00 +9°C° 0 mm 6 mps 757 mmHg 65%
    09:00 +9°C° 0 mm 6 mps 757 mmHg 63%
    10:00 +10°C° 0 mm 6 mps 757 mmHg 58%
    11:00 +10°C° 0 mm 6 mps 758 mmHg 53%
    12:00 +10°C° 0 mm 6 mps 758 mmHg 47%
    13:00 +10°C° 0 mm 6 mps 758 mmHg 46%
    14:00 +10°C° 0 mm 5 mps 758 mmHg 44%
    15:00 +10°C° 0 mm 5 mps 759 mmHg 43%
    16:00 +10°C° 0 mm 4 mps 759 mmHg 49%
    17:00 +9°C° 0 mm 3 mps 759 mmHg 55%
    18:00 +7°C° 0 mm 2 mps 759 mmHg 61%
    19:00 +8°C° 0 mm 1 mps 759 mmHg 63%
    20:00 +7°C° 0 mm 1 mps 759 mmHg 65%
    21:00 +7°C° 0 mm 1 mps 759 mmHg 67%
    22:00 +7°C° 0 mm 1 mps 759 mmHg 67%
    23:00 +7°C° 0 mm 1 mps 758 mmHg 67%

    1 October, Monday

    Time Temperature Precipitation Wind Pressure Humidity
    00:00 +8°C° 0 mm 1 mps 758 mmHg 67%
    01:00 +7°C° 0.7 mm 1 mps 758 mmHg 73%
    02:00 +6°C° 0.7 mm 0 mps 758 mmHg 80%
    03:00 +6°C° 0.7 mm 0 mps 757 mmHg 87%
    04:00 +5°C° 0.7 mm 0 mps 757 mmHg 88%
    05:00 +5°C° 0.7 mm 0 mps 757 mmHg 90%
    06:00 +5°C° 0.7 mm 0 mps 756 mmHg 92%
    07:00 +6°C° 0.2 mm 1 mps 756 mmHg 90%
    08:00 +7°C° 0.2 mm 1 mps 756 mmHg 88%
    09:00 +7°C° 0.2 mm 1 mps 755 mmHg 87%
    10:00 +8°C° 0.1 mm 1 mps 755 mmHg 82%
    11:00 +8°C° 0.1 mm 1 mps 755 mmHg 78%
    12:00 +9°C° 0.1 mm 1 mps 755 mmHg 74%
    13:00 +9°C° 0.3 mm 1 mps 754 mmHg 76%
    14:00 +8°C° 0.3 mm 1 mps 754 mmHg 79%
    15:00 +8°C° 0.3 mm 1 mps 754 mmHg 81%
    16:00 +8°C° 0.8 mm 1 mps 754 mmHg 85%
    17:00 +7°C° 0.8 mm 1 mps 753 mmHg 89%
    18:00 +7°C° 0.8 mm 1 mps 753 mmHg 93%
    19:00 +6°C° 0.7 mm 1 mps 753 mmHg 94%
    20:00 +5°C° 0.7 mm 2 mps 752 mmHg 94%
    21:00 +5°C° 0.7 mm 2 mps 752 mmHg 94%
    22:00 +5°C° 0.5 mm 2 mps 752 mmHg 94%
    23:00 +5°C° 0.5 mm 2 mps 752 mmHg 94%
    Show more